Overview Statistics Trail Chart Weather Telemetry Raw packets
 

This is the latest recevied weather packets stored in our database for station/object W6JCZ-13. If no packets are shown the sender has not sent any weather packets the latest 10 day(s).

<< 33 34 35 36 37 38 39 >>
Time Temp. Humidity Pressure Rain* Wind** Luminosity Snow
1788125416 31.11° C 35% 1009.8 hPa 0 mm - - -
1788124816 30.56° C 32% 1010 hPa 0 mm - - -
1788124216 30° C 34% 1010.1 hPa 0 mm - - -
1788123616 30° C 33% 1010.2 hPa 0 mm - - -
1788123017 30° C 35% 1010.2 hPa 0 mm - - -
1788122417 30° C 34% 1010.4 hPa 0 mm - - -
1788121816 30° C 37% 1010.6 hPa 0 mm - - -
1788121216 29.44° C 36% 1010.6 hPa 0 mm - - -
1788120616 28.89° C 39% 1010.9 hPa 0 mm - - -
1788120016 28.89° C 41% 1011 hPa 0 mm - - -
1788119417 28.33° C 37% 1011 hPa 0 mm - - -
1788118816 28.89° C 38% 1011.1 hPa 0 mm - - -
1788118216 27.78° C 40% 1011.2 hPa 0 mm - - -
1788117616 27.22° C 41% 1011.4 hPa 0 mm - - -
1788117016 27.22° C 42% 1011.5 hPa 0 mm - - -
1788116416 26.67° C 45% 1011.5 hPa 0 mm - - -
1788115816 26.67° C 46% 1011.5 hPa 0 mm - - -
1788115216 25.56° C 46% 1011.6 hPa 0 mm - - -
1788114630 25.56° C 50% 1011.6 hPa 0 mm - - -
1788114016 25° C 51% 1011.7 hPa 0 mm - - -
1788113416 25° C 51% 1011.8 hPa 0 mm - - -
1788112816 24.44° C 53% 1011.9 hPa 0 mm - - -
1788112216 23.89° C 56% 1011.8 hPa 0 mm - - -
1788111616 23.33° C 57% 1011.9 hPa 0 mm - - -
1788111016 22.78° C 58% 1011.9 hPa 0 mm - - -

* Rain latest hour (hover to see other rain measurements)
** Current wind speed in m/s (hover to see current wind gust speed)